• In Hungary
  • List of Countries
  • For 7 days
  • Water Temperature
  • Satellite Maps
  • Weather Map
  • News
  • Weather Widgets
  • user-avatar
    Login

    Hourly Weather Keita

    Today, 21 June, Thursday

    Time Temperature Precipitation Wind Pressure Humidity
    00:00 +35°C° 0 mm 5 mps 725 mmHg 47%
    01:00 +34°C° 0.3 mm 6 mps 724 mmHg 49%
    02:00 +34°C° 0.3 mm 6 mps 724 mmHg 51%
    03:00 +33°C° 0.3 mm 6 mps 724 mmHg 52%
    04:00 +33°C° 0.1 mm 6 mps 724 mmHg 54%
    05:00 +33°C° 0.1 mm 7 mps 725 mmHg 56%
    06:00 +32°C° 0.1 mm 7 mps 725 mmHg 58%
    07:00 +33°C° 0 mm 6 mps 725 mmHg 56%
    08:00 +34°C° 0 mm 6 mps 726 mmHg 53%
    09:00 +35°C° 0 mm 6 mps 726 mmHg 51%
    10:00 +36°C° 0 mm 5 mps 726 mmHg 48%
    11:00 +36°C° 0 mm 5 mps 726 mmHg 44%
    12:00 +37°C° 0 mm 4 mps 726 mmHg 41%
    13:00 +37°C° 0 mm 4 mps 726 mmHg 42%
    14:00 +37°C° 0 mm 4 mps 725 mmHg 42%
    15:00 +36°C° 0 mm 4 mps 725 mmHg 43%
    16:00 +36°C° 0 mm 4 mps 724 mmHg 43%
    17:00 +36°C° 0 mm 4 mps 724 mmHg 43%
    18:00 +36°C° 0 mm 5 mps 724 mmHg 43%
    19:00 +35°C° 0.6 mm 5 mps 725 mmHg 45%
    20:00 +34°C° 0.6 mm 5 mps 725 mmHg 47%
    21:00 +33°C° 0.6 mm 5 mps 726 mmHg 49%
    22:00 +33°C° 0.4 mm 5 mps 726 mmHg 50%
    23:00 +32°C° 0.4 mm 6 mps 726 mmHg 51%

    Tomorrow, 22 June, Friday

    Time Temperature Precipitation Wind Pressure Humidity
    00:00 +32°C° 0.4 mm 6 mps 726 mmHg 52%
    01:00 +30°C° 0.6 mm 6 mps 726 mmHg 55%
    02:00 +30°C° 0.6 mm 5 mps 726 mmHg 58%
    03:00 +29°C° 0.6 mm 5 mps 726 mmHg 61%
    04:00 +29°C° 0.1 mm 5 mps 726 mmHg 61%
    05:00 +29°C° 0.1 mm 5 mps 726 mmHg 61%
    06:00 +29°C° 0.1 mm 5 mps 726 mmHg 61%
    07:00 +30°C° 0 mm 5 mps 726 mmHg 57%
    08:00 +32°C° 0 mm 5 mps 727 mmHg 54%
    09:00 +33°C° 0 mm 6 mps 727 mmHg 50%
    10:00 +34°C° 0 mm 5 mps 727 mmHg 47%
    11:00 +35°C° 0 mm 4 mps 727 mmHg 43%
    12:00 +36°C° 0 mm 3 mps 727 mmHg 40%
    13:00 +36°C° 0 mm 3 mps 726 mmHg 39%
    14:00 +37°C° 0 mm 3 mps 725 mmHg 39%
    15:00 +37°C° 0 mm 2 mps 725 mmHg 38%
    16:00 +37°C° 0 mm 2 mps 725 mmHg 38%
    17:00 +37°C° 0 mm 2 mps 725 mmHg 38%
    18:00 +37°C° 0 mm 2 mps 725 mmHg 38%
    19:00 +36°C° 0 mm 2 mps 725 mmHg 39%
    20:00 +36°C° 0 mm 2 mps 726 mmHg 39%
    21:00 +36°C° 0 mm 3 mps 726 mmHg 40%
    22:00 +36°C° 0 mm 3 mps 726 mmHg 41%
    23:00 +35°C° 0 mm 3 mps 726 mmHg 42%

    Day after tomorrow, 23 June, Saturday

    Time Temperature Precipitation Wind Pressure Humidity
    00:00 +35°C° 0 mm 3 mps 726 mmHg 43%
    01:00 +35°C° 0 mm 3 mps 726 mmHg 44%
    02:00 +34°C° 0 mm 3 mps 725 mmHg 46%
    03:00 +34°C° 0 mm 3 mps 725 mmHg 47%
    04:00 +33°C° 0 mm 4 mps 725 mmHg 49%
    05:00 +33°C° 0 mm 5 mps 725 mmHg 52%
    06:00 +32°C° 0 mm 6 mps 726 mmHg 55%
    07:00 +33°C° 0 mm 6 mps 726 mmHg 53%
    08:00 +34°C° 0 mm 6 mps 727 mmHg 51%
    09:00 +35°C° 0 mm 6 mps 727 mmHg 48%
    10:00 +36°C° 0 mm 6 mps 727 mmHg 45%
    11:00 +37°C° 0 mm 5 mps 727 mmHg 42%
    12:00 +38°C° 0 mm 4 mps 726 mmHg 38%
    13:00 +38°C° 0 mm 3 mps 726 mmHg 38%
    14:00 +38°C° 0 mm 3 mps 725 mmHg 37%
    15:00 +38°C° 0 mm 2 mps 724 mmHg 37%
    16:00 +38°C° 0 mm 2 mps 724 mmHg 37%
    17:00 +38°C° 0 mm 2 mps 724 mmHg 37%
    18:00 +38°C° 0 mm 3 mps 724 mmHg 37%
    19:00 +37°C° 0 mm 3 mps 724 mmHg 37%
    20:00 +37°C° 0 mm 3 mps 725 mmHg 38%
    21:00 +37°C° 0 mm 3 mps 725 mmHg 38%
    22:00 +36°C° 0.3 mm 3 mps 725 mmHg 40%
    23:00 +36°C° 0.3 mm 4 mps 725 mmHg 42%

    24 June, Sunday

    Time Temperature Precipitation Wind Pressure Humidity
    00:00 +35°C° 0.3 mm 4 mps 725 mmHg 44%
    01:00 +34°C° 4.5 mm 4 mps 725 mmHg 51%
    02:00 +33°C° 4.5 mm 4 mps 724 mmHg 58%
    03:00 +30°C° 4.5 mm 4 mps 724 mmHg 64%
    04:00 +31°C° 0.4 mm 3 mps 724 mmHg 62%
    05:00 +31°C° 0.4 mm 3 mps 725 mmHg 60%
    06:00 +31°C° 0.4 mm 3 mps 725 mmHg 58%
    07:00 +33°C° 0 mm 3 mps 726 mmHg 54%
    08:00 +34°C° 0 mm 4 mps 726 mmHg 50%
    09:00 +35°C° 0 mm 5 mps 727 mmHg 46%
    10:00 +36°C° 0 mm 5 mps 726 mmHg 44%
    11:00 +37°C° 0 mm 5 mps 726 mmHg 41%
    12:00 +38°C° 0 mm 6 mps 726 mmHg 39%
    13:00 +39°C° 0 mm 6 mps 725 mmHg 38%
    14:00 +39°C° 0 mm 6 mps 725 mmHg 37%
    15:00 +39°C° 0 mm 6 mps 724 mmHg 36%
    16:00 +39°C° 0 mm 5 mps 724 mmHg 35%
    17:00 +39°C° 0 mm 5 mps 724 mmHg 35%
    18:00 +38°C° 0 mm 4 mps 724 mmHg 35%
    19:00 +37°C° 0.2 mm 4 mps 724 mmHg 37%
    20:00 +37°C° 0.2 mm 4 mps 724 mmHg 38%
    21:00 +36°C° 0.2 mm 4 mps 725 mmHg 40%
    22:00 +36°C° 0.2 mm 4 mps 724 mmHg 41%
    23:00 +35°C° 0.2 mm 4 mps 724 mmHg 43%

    25 June, Monday

    Time Temperature Precipitation Wind Pressure Humidity
    00:00 +35°C° 0.2 mm 4 mps 724 mmHg 44%
    01:00 +34°C° 2.2 mm 4 mps 724 mmHg 49%
    02:00 +33°C° 2.2 mm 4 mps 724 mmHg 54%
    03:00 +32°C° 2.2 mm 4 mps 724 mmHg 58%
    04:00 +30°C° 2.3 mm 4 mps 725 mmHg 62%
    05:00 +30°C° 2.3 mm 4 mps 725 mmHg 66%
    06:00 +29°C° 2.3 mm 3 mps 726 mmHg 70%
    07:00 +32°C° 0.1 mm 4 mps 726 mmHg 61%
    08:00 +33°C° 0.1 mm 4 mps 726 mmHg 51%
    09:00 +35°C° 0.1 mm 5 mps 726 mmHg 42%
    10:00 +36°C° 0 mm 5 mps 725 mmHg 38%
    11:00 +37°C° 0 mm 4 mps 725 mmHg 33%
    12:00 +40°C° 0 mm 4 mps 725 mmHg 29%
    13:00 +40°C° 0 mm 4 mps 724 mmHg 27%
    14:00 +40°C° 0 mm 3 mps 723 mmHg 26%
    15:00 +42°C° 0 mm 3 mps 723 mmHg 24%
    16:00 +40°C° 0 mm 3 mps 723 mmHg 25%
    17:00 +40°C° 0 mm 3 mps 723 mmHg 26%
    18:00 +40°C° 0 mm 3 mps 723 mmHg 26%
    19:00 +39°C° 0.4 mm 3 mps 723 mmHg 29%
    20:00 +38°C° 0.4 mm 4 mps 724 mmHg 31%
    21:00 +37°C° 0.4 mm 4 mps 724 mmHg 34%
    22:00 +36°C° 0.9 mm 3 mps 724 mmHg 37%
    23:00 +36°C° 0.9 mm 3 mps 724 mmHg 40%

    26 June, Tuesday

    Time Temperature Precipitation Wind Pressure Humidity
    00:00 +35°C° 0.9 mm 3 mps 724 mmHg 42%
    01:00 +34°C° 0.8 mm 4 mps 724 mmHg 45%
    02:00 +33°C° 0.8 mm 5 mps 723 mmHg 48%
    03:00 +33°C° 0.8 mm 6 mps 723 mmHg 51%
    04:00 +32°C° 0 mm 6 mps 723 mmHg 53%
    05:00 +32°C° 0 mm 6 mps 724 mmHg 54%
    06:00 +32°C° 0 mm 7 mps 724 mmHg 56%
    07:00 +33°C° 0 mm 7 mps 724 mmHg 53%
    08:00 +34°C° 0 mm 7 mps 725 mmHg 49%
    09:00 +35°C° 0 mm 8 mps 725 mmHg 46%
    10:00 +37°C° 0 mm 8 mps 725 mmHg 42%
    11:00 +39°C° 0 mm 7 mps 725 mmHg 38%
    12:00 +40°C° 0 mm 7 mps 724 mmHg 34%
    13:00 +40°C° 0 mm 6 mps 724 mmHg 32%
    14:00 +41°C° 0 mm 5 mps 723 mmHg 30%
    15:00 +41°C° 0 mm 4 mps 723 mmHg 28%
    16:00 +40°C° 0.2 mm 4 mps 723 mmHg 32%
    17:00 +38°C° 0.2 mm 4 mps 722 mmHg 36%
    18:00 +37°C° 0.2 mm 4 mps 722 mmHg 39%
    19:00 +36°C° 0 mm 4 mps 722 mmHg 43%
    20:00 +35°C° 0 mm 4 mps 722 mmHg 46%
    21:00 +35°C° 0 mm 5 mps 723 mmHg 50%
    22:00 +33°C° 0 mm 6 mps 722 mmHg 53%
    23:00 +32°C° 0 mm 6 mps 722 mmHg 56%
    Show more